Hourly Data Report for September 19, 2017

All times are specified in Local Standard Time (LST). Add 1 hour to adjust for Daylight Saving Time where and when it is observed.

EUREKA CLIMATE
NUNAVUT

79°59'21.000" N
85°56'02.000" W
10.00 m
2401199
71613
NEK

Download Data

Hourly Data (September 2017)
Hourly Data Report for September 19, 2017
Temp Definition
°C
Dew Point Temp Definition
°C
Rel Hum Definition
%
Wind Dir Definition
10's deg

Wind Spd Definition
km/h
Visibility Definition
km
Stn Press Definition
kPa
Hmdx Definition


Wind Chill Definition


Weather Definition


TIME
00:00 -7.6 -8.1 96 11 4   101.89   -10 LegendNANA
01:00 -7.6 -8.2 95 16 2   101.97   -9 LegendNANA
02:00 -7.6 -8.3 95 11 4   102.04   -10 LegendNANA
03:00 -7.9 -8.4 96 13 1   102.11   -8 LegendNANA
04:00 -7.6 -8.3 95 35 5   102.18   -10 LegendNANA
05:00 -6.6 -7.3 95 30 8   102.26   -10 LegendNANA
06:00 -6.9 -7.6 94 34 4   102.32   -9 LegendNANA
07:00 -6.5 -7.3 95 28 9   102.37   -11 LegendNANA
08:00 -6.7 -7.8 92 30 12   102.41   -12 LegendNANA
09:00 -7.0 -8.0 93 31 12   102.44   -12 LegendNANA
10:00 -6.9 -9.1 84 29 12   102.46   -12 LegendNANA
11:00 -7.3 -9.4 85 30 14   102.49   -13 LegendNANA
12:00 -7.0 -10.1 78 23 5   102.54   -10 LegendNANA
13:00 -11.0 -13.5 82 12 7   102.57   -15 LegendNANA
14:00 -11.0 -12.6 88 11 13   102.60   -17 LegendNANA
15:00 -10.1 -10.6 96 9 10   102.65   -15 LegendNANA
16:00 -11.0 -11.4 96 9 10   102.67   -16 LegendNANA
17:00 -10.7 -11.2 96 10 8   102.71   -15 LegendNANA
18:00 -11.1 -11.7 95 10 5   102.73   -14 LegendNANA
19:00 -12.3 -13.0 95 6 7   102.75   -17 LegendNANA
20:00 -13.8 -14.8 93 9 7   102.78   -18 LegendNANA
21:00 -14.0 -14.9 93 8 5   102.80   -17 LegendNANA
22:00 -13.9 -14.8 93 4 3   102.79   -16 LegendNANA
23:00 -13.6 -14.6 93 12 2   102.78   -15 LegendNANA

Notes on Data Quality.

Legend

  • E = Estimated
  • M = Missing
  • NA = Not Available
  • ‡ = Partner data that is not subject to review by the National Climate Archives
Date modified: